Regional Weather Roundup
Issued by NWS

Home | Current Version | Previous Version | Graphics & Text | Print | Product List | Glossary On
Versions: 1 2 3 4 5 6 7 8 9 10 11 12 13 14 15 16 17 18 19 20 21 22 23 24 25 26 27 28 29 30 31 32 33 34 35 36 37 38 39 40 41 42 43 44 45 46 47 48 49 50
000
ASUS43 KMKX 020821
RWRWI

WISCONSIN REGIONAL WEATHER ROUNDUP
NATIONAL WEATHER SERVICE MILWAUKEE/SULLIVAN WI
300 AM CDT WED SEP 02 2015

NOTE: "FAIR" INDICATES FEW OR NO CLOUDS BELOW 12,000 FEET WITH NO
SIGNIFICANT WEATHER AND/OR OBSTRUCTIONS TO VISIBILITY.

WIZ001-002-006>008-014>016-023>028-020900-
NORTHWEST WISCONSIN

CITY           SKY/WX    TMP DP  RH WIND       PRES   REMARKS
SUPERIOR ARPT  CLOUDY    67  66  97 SE3       29.92R
ASHLAND        MOCLDY    67  67 100 CALM      29.94R FOG
HAYWARD        CLOUDY    71  69  93 CALM      29.94R FOG
SIREN          LGT RAIN  73  72  95 CALM      29.93S
CUMBERLAND     CLOUDY    70  70 100 CALM      29.94F FOG
RICE LAKE      CLOUDY    71  70  96 CALM      29.95F FOG
CHETEK           N/A    N/A N/A N/A CALM      29.94F FOG
LADYSMITH      FOG       71  70  96 CALM      29.97F VSB 1/4
EAU CLAIRE     MOCLDY    74  71  91 S3        29.93S
MENOMONIE      CLOUDY    71  70  97 E3        29.93F FOG
NEW RICHMOND   CLOUDY    74  72  95 S3        29.93S
OSCEOLA        LGT RAIN  74  74 100 CALM      29.95S
$$

WIZ003>005-009-010-017-018-020900-
NORTH CENTRAL WISCONSIN

CITY           SKY/WX    TMP DP  RH WIND       PRES   REMARKS
MANITOWISH WTR FOG       62  62 100 CALM      29.99S VSB 1/2
ARBOR VITAE    MOCLDY    67  65  94 CALM      29.99S
WOODRUFF       MOCLDY    67  65  94 CALM      29.99S
RHINELANDER    MOCLDY    68  66  93 CALM      30.00S FOG
EAGLE RIVER    MOCLDY    63  63 100 CALM      29.99R FOG
LAND O LAKES   FOG       61  61 100 CALM      30.01R VSB 3/4
PHILLIPS       CLOUDY    67  67 100 CALM      29.97S FOG
TOMAHAWK       MOCLDY    69  68  96 CALM      29.99S FOG
MEDFORD        PTCLDY    69  69 100 S3        29.98F FOG
MERRILL        FOG       65  65 100 CALM      29.98S VSB 1/2
$$

WIZ029-030-035-036-043>047-020900-
CENTRAL WISCONSIN

CITY           SKY/WX    TMP DP  RH WIND       PRES   REMARKS
WAUSAU         PTCLDY    72  71  97 S3        29.96F FOG
MOSINEE        PTCLDY    70  70 100 S3        29.99S FOG
MARSHFIELD     FOG       71  67  87 S3        29.98F VSB 1/4
STEVENS POINT  PTCLDY    69  68  99 CALM      29.98F FOG
WAUPACA        FOG       71  70  98 CALM      29.97F VSB 1/2
WAUTOMA        PTCLDY    68  68 100 CALM      29.98F FOG
WISC RAPIDS    CLEAR     71  69  93 S3        29.99S FOG
CAMP DOUGLAS   FOG       66  66 100 E2        29.97S VSB 1/2
$$

WIZ011>013-019>022-031-037>040-048>050-020900-
NORTHEAST WISCONSIN

CITY           SKY/WX    TMP DP  RH WIND       PRES   REMARKS
ANTIGO         MOCLDY    69  69 100 CALM      29.99S FOG
SHAWANO        PTCLDY    73  71  93 SW3       29.96F FOG
OCONTO         PTCLDY    69  69 100 CALM      29.94S
STURGEON BAY   PTCLDY    73  70  88 SW5       29.97S
GREEN BAY      PTCLDY    72  70  93 CALM      29.96S FOG
MANITOWOC      CLEAR     66  61  84 MISG      29.97S
APPLETON       PTCLDY    70  70 100 S3        29.96S FOG
CLINTONVILLE   CLOUDY    68  68 100 CALM      29.95F FOG
OSHKOSH        PTCLDY    73  70  90 S6        29.97S FOG
$$

WIZ032>034-041-042-053>061-020900-
SOUTHWEST WISCONSIN

CITY           SKY/WX    TMP DP  RH WIND       PRES   REMARKS
LA CROSSE      PTCLDY    76  72  87 SE5       29.94F
SPARTA         CLEAR     67  66  96 CALM      29.97S
VIROQUA          N/A     72  72 100 SW5       30.00S
BOSCOBEL       FOG       68  67  96 CALM      29.98S VSB 1/4
PRAIRIE DU CHI CLEAR     72  68  87 CALM      29.98S
PLATTEVILLE    CLEAR     71  69  94 S7        30.01S
$$

WIZ056-057-062-063-064-067-068-020900-
SOUTH CENTRAL WISCONSIN

CITY           SKY/WX    TMP DP  RH WIND       PRES   REMARKS
REEDSBURG      MOCLDY    75  71  88 CALM      29.97F
BARABOO/DELLS  PTCLDY    74  69  83 W3        29.98S
LONE ROCK      CLEAR     70  67  90 CALM      29.99S FOG
MINERAL POINT  CLEAR     73  70  88 CALM      30.01F
MADISON        MOCLDY    75  69  81 SW3       29.99S
MIDDLETON      MOCLDY    74  70  86 SW3       30.00S
WATERTOWN      CLOUDY    69  69 100 CALM      30.00R
MONROE         CLEAR     70  68  94 SW8       30.01S
JANESVILLE     PTCLDY    72  70  94 S7        30.00S
$$

WIZ051-052-058>065-066-070>072-020900-
SOUTHEAST WISCONSIN

CITY           SKY/WX    TMP DP  RH WIND       PRES   REMARKS
MILWAUKEE      PTCLDY    75  69  81 SW6       29.99F
WAUKESHA       CLEAR     70  68  94 CALM      30.02S
MILWAUKEE/TIMM CLEAR     72  66  83 W3        30.01S
RACINE         PTCLDY    75  69  81 SW6       30.01F
BURLINGTON     PTCLDY    67  66  97 CALM      30.01R
KENOSHA        CLEAR     74  69  85 SW9       30.01S
FOND DU LAC    PTCLDY    73  71  93 S5        29.98S
SHEBOYGAN      CLEAR     72  70  93 CALM      29.97F
WEST BEND      PTCLDY    70  68  94 CALM      30.00S
JUNEAU         PTCLDY    70  69  96 S5        30.01S FOG
$$

LSZ147-162-020900-
LAKE SUPERIOR

STATION/POSITION TIME  TEMP    WIND        PRES    WAVE
                       AIR SEA DIR/SP/G            HT/PER
                 (UTC) (F)     (DEG/KT/KT) (MB)    (FT/S)
W MID LAKE BUOY  0750   58 56  120/  4/  4 1013.8R   0
DEVILS ISLAND    0800   63      80/  8/  8 1013.5S
PORT WING        0700   64      50/  3/  5 1013.5
SAXON HARBOR     0700   67        CALM     1013.2S
$$

LMZ867-665-643>646-020900-
LAKE MICHIGAN

STATION/POSITION TIME  TEMP    WIND        PRES    WAVE
                       AIR SEA DIR/SP/G            HT/PER
                 (UTC) (F)     (DEG/KT/KT) (MB)    (FT/S)
CHAMBERS ISLAND  0700   73     190/  5/  9 1013.9F
S GREEN BAY BUOY 0800   70 67  220/  6/  8 1015.5
N MID LAKE BUOY  0750   66 65  200/ 10/ 12 1013.5F   2/ 4
NORTHPORT PIER   0700   65      CALM  /  2 1013.9F
SISTER BAY       0719   71        CALM       N/A
ALGOMA LAKESHORE 0714             CALM       N/A
KEWAUNEE LAKESHO 0800   54     160/  4/  4 1013.3F
SHEBOYGAN LAKESH 0800   73     240/  5/  5 1014.8F
PORT WASHINGTON  0700   58      CALM  /  1 1015.9F
ATWATER BUOY     0800   69 49  250/  8/  8 1016.8F
MILWAUKEE LAKESH 0810   77     250/  7/ 10   N/A
S MID LAKE BUOY  0750   72 70  200/ 10/ 12 1015.4F   1/ 4
KENOSHA   LAKESH 0800   77     250/  9/ 12 1015.6S
$$

TC  - TEMPERATURE IN CELSIUS
VSB - VISIBILITY IN STATUTE MILES
WCI - WIND CHILL INDEX
HX  - HEAT INDEX




USA.gov is the U.S. government's official web portal to all federal, state and local government web resources and services.